Location: Beuvrequen
(50.8014°N, 1.6652°E)
Time: 03:43:39
(UTC+00:00)

Cosmos 1758 - Pass Details

Date: 16 October 2021
Orbit: 539 x 560 km, 82.5° (Epoch: 28 November)

Event Time Altitude Azimuth Distance (km) Brightness Sun altitude
Rises 18:03:01 0° 191° (S) 2,706 7.0 -10.9°
Reaches altitude 10° 18:05:10 10° 193° (SSW) 1,814 6.1 -11.2°
Maximum altitude 18:09:10 81° 281° (W) 559 3.4 -11.9°
Drops below altitude 10° 18:13:10 10° 8° (N) 1,820 5.9 -12.5°
Sets 18:15:20 0° 10° (N) 2,715 6.8 -12.9°
